Home > Weather > Sutton Coldfield > Past weeks

Flag for United Kingdom Past Weather in Sutton Coldfield, England, United Kingdom — Yesterday and Last 2 Weeks

Now
52 °F

Passing clouds.


Feels Like: 48 °F
Forecast: 49 / 66 °F
Wind: 10 mph from Northeast

Location: Birmingham / Airport

Current Time: May 29, 2016 at 8:41:27 AM

Latest Report: May 29, 2016 at 8:20 AM


Visibility: 4 mi

Pressure: 29.95 "Hg

Humidity: 82%

Dew Point: 46 °F

Location of Sutton ColdfieldLocation

Past Weather in Sutton Coldfield — Graph

°F

Sutton Coldfield Temperature Yesterday

Maximum temperature yesterday: 64 °F (at 1:50 PM)
Minimum temperature yesterday: 48 °F (at 3:20 AM)
Average temperature yesterday: 56 °F

High & Low Weather Summary for the Past Weeks

 TemperatureHumidityPressure
High64 °F (May 27, 2:50 PM)100% (May 18, 6:50 AM)30.21 "Hg (May 18, 6:50 AM)
Low39 °F (May 15, 4:50 AM)39% (May 14, 6:20 PM)29.56 "Hg (May 18, 11:20 AM)
Average54 °F75%29.97 "Hg
* Reported May 14 7:20 AM — May 29 7:20 AM, Sutton Coldfield, Weather by CustomWeather, © 2016

Note: Actual official high and low records may vary slightly from our data, if they occured in-between our weather recording intervals... More about our weather records

Advertising

Sutton Coldfield Weather History for the Previous 24 Hours

Scroll right to see more
 ConditionsComfort  
Time TempWeatherWind HumidityBarometerVisibility
7:20 AM
Sun, May 29
48 °FFog.9 mph94%29.95 "Hg2 mi
6:50 AM48 °FFog.9 mph94%29.95 "Hg2 mi
6:20 AM48 °FHaze.6 mph94%29.95 "Hg2 mi
5:50 AM46 °FFog.5 mph93%29.95 "Hg2 mi
5:20 AM46 °FFog.3 mph93%29.95 "Hg2 mi
4:50 AM46 °FFog.5 mph93%29.95 "Hg2 mi
4:20 AM46 °FFog.3 mph93%29.95 "Hg3 mi
3:50 AM46 °FClear.5 mph93%29.95 "Hg6 mi
3:20 AM46 °FClear.5 mph100%29.95 "Hg5 mi
2:50 AM48 °FClear.5 mph94%29.98 "Hg5 mi
2:20 AM48 °FClear.3 mph94%29.98 "Hg5 mi
1:50 AM50 °FClear.5 mph94%29.98 "Hg6 mi
1:20 AM50 °FClear.5 mph88%29.98 "Hg10 mi
12:50 AM52 °FClear.6 mph88%29.95 "Hg10 mi
12:20 AM52 °FPassing clouds.6 mph88%29.95 "HgN/A
11:50 PM
Sat, May 28
54 °FClear.5 mph82%29.98 "Hg10 mi
11:20 PM54 °FClear.3 mph82%29.98 "Hg10 mi
10:50 PM55 °FClear.3 mph82%29.98 "Hg10 mi
10:20 PM55 °FClear.5 mph82%29.98 "Hg10 mi
9:50 PM57 °FPassing clouds.7 mph77%29.98 "HgN/A
9:20 PM57 °FPassing clouds.6 mph72%29.98 "HgN/A
8:50 PM59 °FSunny.7 mph68%29.95 "Hg10 mi
8:20 PM61 °FSunny.7 mph63%29.95 "Hg10 mi
7:50 PM61 °FSunny.8 mph63%29.95 "Hg10 mi
7:20 PM63 °FPassing clouds.10 mph59%29.95 "HgN/A
6:50 PM63 °FPassing clouds.10 mph64%29.95 "HgN/A
6:20 PM64 °FPassing clouds.9 mph60%29.95 "HgN/A
5:50 PM64 °FPassing clouds.10 mph60%29.95 "HgN/A
5:20 PM64 °FPassing clouds.9 mph60%29.95 "HgN/A
4:50 PM64 °FBroken clouds.9 mph60%29.98 "HgN/A
4:20 PM64 °FBroken clouds.8 mph60%29.98 "HgN/A
3:50 PM64 °FBroken clouds.10 mph60%29.98 "HgN/A
3:20 PM64 °FScattered clouds.7 mph60%29.98 "HgN/A
2:50 PM64 °FPartly sunny.8 mph60%29.98 "HgN/A
2:20 PM64 °FPartly sunny.7 mph60%29.98 "HgN/A
1:50 PM64 °FPartly sunny.7 mph56%29.98 "HgN/A
1:20 PM63 °FMostly cloudy.8 mph59%30.01 "HgN/A
12:50 PM61 °FPartly sunny.7 mph63%30.01 "HgN/A
12:20 PM63 °FScattered clouds.8 mph59%30.01 "HgN/A
11:50 AM63 °FScattered clouds.7 mph64%30.01 "HgN/A
11:20 AM61 °FPassing clouds.8 mph63%30.01 "HgN/A
10:50 AM59 °FPassing clouds.9 mph68%30.01 "HgN/A
10:20 AM55 °FPassing clouds.6 mph77%30.01 "HgN/A
9:50 AM55 °FPassing clouds.6 mph77%30.04 "HgN/A
9:20 AM54 °FClear.7 mph82%30.04 "HgN/A
8:50 AM52 °FClear.6 mph82%30.04 "Hg6 mi
8:20 AM52 °FPassing clouds.7 mph82%30.04 "HgN/A
Weather by CustomWeather, © 2016

See weather overviewHow to use our weather pages